Location: Hopville
(44.8032°N, 123.1329°W)
Time: 16:43:01
(UTC+00:00)

CENTAUR R/B - Pass Details

Date: 24 January 2021
Orbit: 742 x 1446 km, 63.5° (Epoch: 25 February)

Event Time Altitude Azimuth Distance (km) Brightness Sun altitude
Rises 14:47:51 0° 221° (SW) 3,372 5.1 -9.3°
Reaches altitude 10° 14:50:09 10° 223° (SW) 2,513 4.4 -9.0°
Maximum altitude 14:55:59 78° 309° (NW) 1,005 2.5 -8.0°
Drops below altitude 10° 15:03:03 10° 36° (NE) 3,006 5.3 -6.8°
Sets 15:06:01 0° 38° (NE) 4,080 6.0 -6.3°
